Regional Weather Roundup
Issued by NWS Green Bay, WI

Home | Current Version | Previous Version | Text Only | Print | Product List | Glossary On
Versions: 1 2 3 4 5 6 7 8 9 10 11 12 13 14 15 16 17 18 19 20 21 22 23 24 25 26 27 28 29 30 31 32 33 34 35 36 37 38 39 40 41 42 43 44 45 46 47 48 49 50
005
ASUS43 KGRB 070011
RWRGRB

NORTH-CENTRAL AND NORTHEAST WISCONSIN REGIONAL WEATHER ROUNDUP
NATIONAL WEATHER SERVICE GREEN BAY WI
700 PM CDT FRI MAY 06 2016

WIZ005-009-010>012-018-019-070100-
NORTH CENTRAL WISCONSIN

CITY           SKY/WX    TMP DP  RH WIND       PRES   REMARKS
IRONWOOD         N/A    N/A N/A N/A SW46G71   29.63F THUNDER
MANITOWISH WTR TSTM      63  55  74 N14G24    29.71R
ARBOR VITAE    CLOUDY    82  42  24 W8        29.67R
EAGLE RIVER      N/A     76  39  26 SW5       29.65S
LAND O LAKES   CLOUDY    81  36  19 W5        29.65S
RHINELANDER    CLOUDY    82  42  24 W15G24    29.67F
PHILLIPS       MOSUNNY   81  48  31 SW8       29.67R
ANTIGO         CLOUDY    77  48  35 W13G18    29.69S
TOMAHAWK       CLOUDY    81  44  26 SW6       29.68S
MERRILL        CLOUDY    82  47  29 W10G18    29.68S
$$

WIZ013-073-070100-
NORTHEAST WISCONSIN

CITY           SKY/WX    TMP DP  RH WIND       PRES   REMARKS
IRON MOUNTAIN  CLOUDY    79  48  33 SE10      29.61F
MARINETTE      CLEAR     64  45  48 E10       29.66F
OCONTO         CLEAR     67  50  55 S8        29.65F
$$

WIZ017-030-035>037-045-070100-
CENTRAL WISCONSIN

CITY           SKY/WX    TMP DP  RH WIND       PRES   REMARKS
MEDFORD        PTSUNNY   81  47  31 SW10G18   29.68F
WAUSAU         CLOUDY    85  44  23 W13G21    29.66F
MOSINEE        SUNNY     81  46  30 SW6       29.71F
MARSHFIELD     SUNNY     84  43  23 W14       29.69F
WISC RAPIDS    SUNNY     86  35  16 W10       29.70F
STEVENS POINT  SUNNY     83  42  23 W6        29.70S
WAUPACA        SUNNY     85  35  16 SW9       29.68F
SHAWANO        SUNNY     87  34  15 W9        29.67S
CLINTONVILLE   SUNNY     82  36  18 W7        29.67F
WAUTOMA        SUNNY     85  40  20 SW9       29.70F
$$

WIZ038-039-048-051-070100-
FOX VALLEY

CITY           SKY/WX    TMP DP  RH WIND       PRES   REMARKS
NWS GREEN BAY  CLEAR     81  50  33 S9        29.67F
APPLETON       MOSUNNY   79  46  31 VRB5      29.68F
OSHKOSH        SUNNY     83  43  24 SW5       29.69F
FOND DU LAC    CLEAR     84  46  26 SW8       29.70F
$$

WIZ022-050-052-070100-
EAST CENTRAL WISCONSIN

CITY           SKY/WX    TMP DP  RH WIND       PRES   REMARKS
EPHRAIM        FAIR      60  40  47 S13G22    29.67F
STURGEON BAY   CLEAR     57  39  51 S21       29.71F
MANITOWOC      CLEAR     55  40  56 MISG      29.73F
SHEBOYGAN      CLEAR     64  44  48 S6        29.73F
$$

LMZ563-521-522-541>543-070100-
LAKESHORE

STATION/POSITION TIME  TEMP    WIND        PRES    VSBY  WAVE
                       AIR SEA DIR/SP/G                  HT/PER
                 (UTC) (F)     (DEG/KT/KT) (MB)    (MI)  (FT/S)
SHEBOYGAN LKSHOR 0000   47     170/ 10/ 11 1007.4F
KEWAUNEE LKSHORE 2300                      1006.7F
ALGOMA MARINA    2315          210/ 19/ 22   N/A
NORTHPORT PIER   2300   57     160/ 12/ 23 1005.8F
N MID LAKE BUOY  2350   46 39  190/ 17/ 19 1005.6F         3/ 4
SISTER BAY LKSHO 2319   61     190/ 26/ 32   N/A
CHAMBERS ISLAND  2300   65     150/  9/ 17 1005.1
MENOMINEE LKSHOR 2300                      1003.9F
$$




USA.gov is the U.S. government's official web portal to all federal, state and local government web resources and services.